Time,TemperatureF,DewpointF,PressureIn,WindDirection,WindDirectionDegrees,WindSpeedMPH,WindSpeedGustMPH,Humidity,HourlyPrecipIn,Conditions,Clouds,dailyrainin,SoftwareType,DateUTC
2013-07-27 00:00:00,60.7,48.0,30.13,NE,45,1.7,4.5,62,0.00,,,0.00,NetBSD+Arduino,2013-07-27 07:00:00,
2013-07-27 00:05:00,60.6,48.1,30.12,NE,45,0.5,3.0,63,0.00,,,0.00,NetBSD+Arduino,2013-07-27 07:05:00,
2013-07-27 00:10:00,60.5,48.6,30.13,North,0,2.0,4.5,64,0.00,,,0.00,NetBSD+Arduino,2013-07-27 07:10:00,
2013-07-27 00:15:00,60.2,48.3,30.13,ESE,102,0.6,3.0,64,0.00,,,0.00,NetBSD+Arduino,2013-07-27 07:15:00,
2013-07-27 00:20:00,60.0,48.3,30.13,ESE,102,0.0,0.0,65,0.00,,,0.00,NetBSD+Arduino,2013-07-27 07:20:00,
2013-07-27 00:25:00,59.9,48.6,30.13,East,101,0.0,1.5,66,0.00,,,0.00,NetBSD+Arduino,2013-07-27 07:25:00,
2013-07-27 00:30:00,59.7,48.5,30.13,NE,45,0.0,3.0,66,0.00,,,0.00,NetBSD+Arduino,2013-07-27 07:30:00,
2013-07-27 00:35:00,59.5,48.3,30.13,East,101,0.0,3.0,66,0.00,,,0.00,NetBSD+Arduino,2013-07-27 07:35:00,
2013-07-27 00:40:00,59.6,48.5,30.13,ESE,102,0.0,0.0,66,0.00,,,0.00,NetBSD+Arduino,2013-07-27 07:40:00,
2013-07-27 00:45:00,59.5,48.5,30.13,East,101,0.0,1.5,67,0.00,,,0.00,NetBSD+Arduino,2013-07-27 07:45:00,
2013-07-27 00:50:00,59.2,48.5,30.13,ESE,102,0.0,0.0,67,0.00,,,0.00,NetBSD+Arduino,2013-07-27 07:50:00,
2013-07-27 00:55:00,59.0,48.5,30.13,ESE,102,0.0,0.0,67,0.00,,,0.00,NetBSD+Arduino,2013-07-27 07:55:00,
2013-07-27 01:00:00,59.2,48.6,30.13,NW,315,0.0,1.5,67,0.00,,,0.00,NetBSD+Arduino,2013-07-27 08:00:00,
2013-07-27 01:05:00,59.0,48.7,30.13,NW,315,0.0,1.5,68,0.00,,,0.00,NetBSD+Arduino,2013-07-27 08:05:00,
2013-07-27 01:10:00,58.8,48.7,30.13,NE,45,1.0,1.5,69,0.00,,,0.00,NetBSD+Arduino,2013-07-27 08:10:00,
2013-07-27 01:15:00,58.6,48.8,30.13,ESE,102,0.0,3.0,69,0.00,,,0.00,NetBSD+Arduino,2013-07-27 08:15:00,
2013-07-27 01:20:00,58.4,48.7,30.13,North,0,1.5,3.0,70,0.00,,,0.00,NetBSD+Arduino,2013-07-27 08:20:00,
2013-07-27 01:25:00,58.2,48.7,30.13,NE,45,0.3,3.0,70,0.00,,,0.00,NetBSD+Arduino,2013-07-27 08:25:00,
2013-07-27 01:30:00,58.2,48.7,30.13,NE,45,0.0,3.0,70,0.00,,,0.00,NetBSD+Arduino,2013-07-27 08:30:00,
2013-07-27 01:35:00,58.0,48.9,30.13,NE,45,0.0,0.0,71,0.00,,,0.00,NetBSD+Arduino,2013-07-27 08:35:00,
2013-07-27 01:40:00,58.0,49.0,30.13,NW,315,0.0,1.5,71,0.00,,,0.00,NetBSD+Arduino,2013-07-27 08:40:00,
2013-07-27 01:45:00,57.9,49.2,30.13,NE,45,1.0,1.5,72,0.00,,,0.00,NetBSD+Arduino,2013-07-27 08:45:00,
2013-07-27 01:50:00,57.9,49.1,30.13,ESE,102,2.0,3.0,72,0.00,,,0.00,NetBSD+Arduino,2013-07-27 08:50:00,
2013-07-27 01:55:00,57.7,48.9,30.13,East,101,0.0,3.0,72,0.00,,,0.00,NetBSD+Arduino,2013-07-27 08:55:00,
2013-07-27 02:00:00,57.7,49.0,30.13,NW,315,0.0,3.0,72,0.00,,,0.00,NetBSD+Arduino,2013-07-27 09:00:00,
2013-07-27 02:05:00,57.5,49.0,30.13,West,270,0.0,3.0,73,0.00,,,0.00,NetBSD+Arduino,2013-07-27 09:05:00,
2013-07-27 02:10:00,57.4,48.9,30.13,North,0,0.0,0.0,73,0.00,,,0.00,NetBSD+Arduino,2013-07-27 09:10:00,
2013-07-27 02:15:00,57.3,49.0,30.13,NW,315,0.5,1.5,73,0.00,,,0.00,NetBSD+Arduino,2013-07-27 09:15:00,
2013-07-27 02:20:00,57.2,48.8,30.13,NW,315,0.5,3.0,73,0.00,,,0.00,NetBSD+Arduino,2013-07-27 09:20:00,
2013-07-27 02:25:00,57.0,48.9,30.13,NW,315,0.0,3.0,74,0.00,,,0.00,NetBSD+Arduino,2013-07-27 09:25:00,
2013-07-27 02:30:00,56.9,48.9,30.13,North,0,0.0,1.5,74,0.00,,,0.00,NetBSD+Arduino,2013-07-27 09:30:00,
2013-07-27 02:35:00,56.8,48.8,30.14,NE,45,0.0,3.0,74,0.00,,,0.00,NetBSD+Arduino,2013-07-27 09:35:00,
2013-07-27 02:40:00,56.9,48.9,30.14,SW,225,0.0,1.5,74,0.00,,,0.00,NetBSD+Arduino,2013-07-27 09:40:00,
2013-07-27 02:45:00,56.7,48.7,30.14,NW,315,0.0,0.0,74,0.00,,,0.00,NetBSD+Arduino,2013-07-27 09:45:00,
2013-07-27 02:50:00,56.7,48.7,30.14,NW,315,0.0,3.0,74,0.00,,,0.00,NetBSD+Arduino,2013-07-27 09:50:00,
2013-07-27 02:55:00,56.7,48.7,30.15,West,270,0.0,1.5,74,0.00,,,0.00,NetBSD+Arduino,2013-07-27 09:55:00,
2013-07-27 03:00:00,56.6,48.8,30.15,NW,315,0.0,0.0,75,0.00,,,0.00,NetBSD+Arduino,2013-07-27 10:00:00,
2013-07-27 03:06:00,56.3,48.6,30.14,West,270,0.0,0.0,75,0.00,,,0.00,NetBSD+Arduino,2013-07-27 10:06:00,
2013-07-27 03:11:00,56.4,48.8,30.15,West,270,0.0,0.0,75,0.00,,,0.00,NetBSD+Arduino,2013-07-27 10:11:00,
2013-07-27 03:16:00,56.2,48.9,30.15,West,270,0.0,0.0,76,0.00,,,0.00,NetBSD+Arduino,2013-07-27 10:16:00,
2013-07-27 03:21:00,56.1,48.7,30.15,NW,315,0.0,0.0,76,0.00,,,0.00,NetBSD+Arduino,2013-07-27 10:21:00,
2013-07-27 03:27:00,55.9,48.7,30.15,NW,315,0.0,0.0,76,0.00,,,0.00,NetBSD+Arduino,2013-07-27 10:27:00,
2013-07-27 03:32:00,56.1,48.9,30.15,West,270,0.0,0.0,76,0.00,,,0.00,NetBSD+Arduino,2013-07-27 10:32:00,
2013-07-27 03:38:00,56.2,49.0,30.15,West,270,0.0,0.0,76,0.00,,,0.00,NetBSD+Arduino,2013-07-27 10:38:00,
2013-07-27 03:43:00,56.2,49.0,30.15,West,270,0.0,0.0,76,0.00,,,0.00,NetBSD+Arduino,2013-07-27 10:43:00,
2013-07-27 03:48:00,55.9,49.0,30.15,West,270,0.0,0.0,77,0.00,,,0.00,NetBSD+Arduino,2013-07-27 10:48:00,
2013-07-27 03:53:00,55.9,50.2,30.15,West,270,0.0,0.0,81,0.00,,,0.00,NetBSD+Arduino,2013-07-27 10:53:00,
2013-07-27 03:58:00,55.9,51.0,30.15,West,270,0.0,0.0,83,0.00,,,0.00,NetBSD+Arduino,2013-07-27 10:58:00,
2013-07-27 04:04:00,55.9,51.3,30.15,SE,135,0.0,3.0,84,0.00,,,0.00,NetBSD+Arduino,2013-07-27 11:04:00,
2013-07-27 04:09:00,55.9,51.4,30.15,West,270,0.0,3.0,85,0.00,,,0.00,NetBSD+Arduino,2013-07-27 11:09:00,
2013-07-27 04:14:00,56.0,51.4,30.15,West,270,0.0,3.0,84,0.00,,,0.00,NetBSD+Arduino,2013-07-27 11:14:00,
2013-07-27 04:19:00,55.9,51.3,30.15,North,0,0.0,0.0,84,0.00,,,0.00,NetBSD+Arduino,2013-07-27 11:19:00,
2013-07-27 04:24:00,55.9,51.6,30.15,West,270,0.0,1.5,85,0.00,,,0.00,NetBSD+Arduino,2013-07-27 11:24:00,
2013-07-27 04:29:00,55.9,51.3,30.15,SW,225,0.0,1.5,84,0.00,,,0.00,NetBSD+Arduino,2013-07-27 11:29:00,
2013-07-27 04:34:00,55.9,51.3,30.15,SW,225,0.0,4.5,84,0.00,,,0.00,NetBSD+Arduino,2013-07-27 11:34:00,
2013-07-27 04:40:00,55.9,51.3,30.15,NW,315,0.0,1.5,84,0.00,,,0.00,NetBSD+Arduino,2013-07-27 11:40:00,
2013-07-27 04:46:00,55.7,51.2,30.15,West,270,0.0,0.0,84,0.00,,,0.00,NetBSD+Arduino,2013-07-27 11:46:00,
2013-07-27 04:51:00,55.6,50.9,30.15,West,270,0.0,0.0,84,0.00,,,0.00,NetBSD+Arduino,2013-07-27 11:51:00,
2013-07-27 04:57:00,55.4,51.1,30.15,NW,315,0.0,0.0,85,0.00,,,0.00,NetBSD+Arduino,2013-07-27 11:57:00,
2013-07-27 05:02:00,55.4,50.9,30.15,NW,315,0.0,0.0,84,0.00,,,0.00,NetBSD+Arduino,2013-07-27 12:02:00,
2013-07-27 05:08:00,55.2,50.8,30.15,NW,315,0.0,0.0,85,0.00,,,0.00,NetBSD+Arduino,2013-07-27 12:08:00,
2013-07-27 05:13:00,55.1,50.9,30.15,NE,45,0.0,0.0,85,0.00,,,0.00,NetBSD+Arduino,2013-07-27 12:13:00,
2013-07-27 05:18:00,55.3,51.1,30.15,SW,225,0.0,3.0,85,0.00,,,0.00,NetBSD+Arduino,2013-07-27 12:18:00,
2013-07-27 05:23:00,55.3,51.2,30.15,SW,225,1.2,3.0,86,0.00,,,0.00,NetBSD+Arduino,2013-07-27 12:23:00,
2013-07-27 05:28:00,55.2,51.2,30.15,SW,225,1.2,3.0,86,0.00,,,0.00,NetBSD+Arduino,2013-07-27 12:28:00,
2013-07-27 05:33:00,55.1,51.3,30.15,SW,225,0.9,3.0,87,0.00,,,0.00,NetBSD+Arduino,2013-07-27 12:33:00,
2013-07-27 05:38:00,55.1,51.4,30.15,SW,225,0.9,3.0,87,0.00,,,0.00,NetBSD+Arduino,2013-07-27 12:38:00,
2013-07-27 05:43:00,55.2,51.5,30.15,West,270,0.0,1.5,87,0.00,,,0.00,NetBSD+Arduino,2013-07-27 12:43:00,
2013-07-27 05:48:00,55.0,51.5,30.15,West,270,0.0,0.0,87,0.00,,,0.00,NetBSD+Arduino,2013-07-27 12:48:00,
2013-07-27 05:53:00,55.0,51.5,30.15,SW,225,0.0,0.0,87,0.00,,,0.00,NetBSD+Arduino,2013-07-27 12:53:00,
2013-07-27 05:58:00,55.0,51.5,30.15,SW,225,0.0,1.5,87,0.00,,,0.00,NetBSD+Arduino,2013-07-27 12:58:00,
2013-07-27 06:03:00,55.2,51.6,30.15,West,270,0.9,3.0,87,0.00,,,0.00,NetBSD+Arduino,2013-07-27 13:03:00,
2013-07-27 06:08:00,55.2,51.7,30.15,West,270,0.0,3.0,87,0.00,,,0.00,NetBSD+Arduino,2013-07-27 13:08:00,
2013-07-27 06:13:00,55.3,51.5,30.15,SE,135,0.0,1.5,87,0.00,,,0.00,NetBSD+Arduino,2013-07-27 13:13:00,
2013-07-27 06:18:00,55.4,51.8,30.15,SW,225,0.0,1.5,87,0.00,,,0.00,NetBSD+Arduino,2013-07-27 13:18:00,
2013-07-27 06:23:00,55.4,51.7,30.15,SW,225,0.0,3.0,87,0.00,,,0.00,NetBSD+Arduino,2013-07-27 13:23:00,
2013-07-27 06:28:00,55.5,51.7,30.15,SW,225,0.0,3.0,87,0.00,,,0.00,NetBSD+Arduino,2013-07-27 13:28:00,
2013-07-27 06:33:00,55.7,52.0,30.15,SW,225,0.5,3.0,87,0.00,,,0.00,NetBSD+Arduino,2013-07-27 13:33:00,
2013-07-27 06:38:00,55.9,52.0,30.16,SW,225,0.0,1.5,86,0.00,,,0.00,NetBSD+Arduino,2013-07-27 13:38:00,
2013-07-27 06:43:00,56.2,52.1,30.16,South,180,0.6,3.0,86,0.00,,,0.00,NetBSD+Arduino,2013-07-27 13:43:00,
2013-07-27 06:48:00,56.4,52.2,30.16,SW,225,1.8,3.0,85,0.00,,,0.00,NetBSD+Arduino,2013-07-27 13:48:00,
2013-07-27 06:53:00,56.6,52.3,30.16,NW,315,0.0,4.5,85,0.00,,,0.00,NetBSD+Arduino,2013-07-27 13:53:00,
2013-07-27 06:58:00,56.9,52.3,30.16,NW,315,0.0,4.5,84,0.00,,,0.00,NetBSD+Arduino,2013-07-27 13:58:00,
2013-07-27 07:03:00,57.0,52.5,30.16,SW,225,0.6,3.0,84,0.00,,,0.00,NetBSD+Arduino,2013-07-27 14:03:00,
2013-07-27 07:08:00,57.4,52.6,30.16,West,270,2.7,6.0,83,0.00,,,0.00,NetBSD+Arduino,2013-07-27 14:08:00,
2013-07-27 07:13:00,57.5,52.7,30.16,NE,45,0.0,6.0,83,0.00,,,0.00,NetBSD+Arduino,2013-07-27 14:13:00,
2013-07-27 07:19:00,57.9,52.7,30.16,West,270,1.2,4.5,82,0.00,,,0.00,NetBSD+Arduino,2013-07-27 14:19:00,
2013-07-27 07:24:00,58.0,52.5,30.16,SW,225,2.1,3.0,81,0.00,,,0.00,NetBSD+Arduino,2013-07-27 14:24:00,
2013-07-27 07:29:00,58.5,52.5,30.17,West,270,0.0,3.0,80,0.00,,,0.00,NetBSD+Arduino,2013-07-27 14:29:00,
2013-07-27 07:34:00,58.4,52.4,30.16,West,270,3.3,4.5,80,0.00,,,0.00,NetBSD+Arduino,2013-07-27 14:34:00,
2013-07-27 07:39:00,58.8,52.9,30.16,SW,225,0.9,3.0,81,0.00,,,0.00,NetBSD+Arduino,2013-07-27 14:39:00,
2013-07-27 07:44:00,58.9,52.5,30.17,West,270,2.1,4.5,79,0.00,,,0.00,NetBSD+Arduino,2013-07-27 14:44:00,
2013-07-27 07:49:00,58.8,52.6,30.16,SW,225,1.5,4.5,79,0.00,,,0.00,NetBSD+Arduino,2013-07-27 14:49:00,
2013-07-27 07:54:00,59.4,53.0,30.17,NW,315,1.5,4.5,79,0.00,,,0.00,NetBSD+Arduino,2013-07-27 14:54:00,
2013-07-27 07:59:00,59.4,52.8,30.16,West,270,1.5,4.5,78,0.00,,,0.00,NetBSD+Arduino,2013-07-27 14:59:00,
2013-07-27 08:04:00,59.5,52.8,30.16,SW,225,0.6,6.0,78,0.00,,,0.00,NetBSD+Arduino,2013-07-27 15:04:00,
2013-07-27 08:09:00,59.7,52.8,30.16,South,180,1.5,7.5,78,0.00,,,0.00,NetBSD+Arduino,2013-07-27 15:09:00,
2013-07-27 08:14:00,59.7,53.1,30.16,West,270,3.2,7.5,78,0.00,,,0.00,NetBSD+Arduino,2013-07-27 15:14:00,
2013-07-27 08:19:00,60.0,52.8,30.17,NW,315,0.9,6.0,77,0.00,,,0.00,NetBSD+Arduino,2013-07-27 15:19:00,
2013-07-27 08:24:00,59.9,52.6,30.17,SW,225,0.0,4.5,76,0.00,,,0.00,NetBSD+Arduino,2013-07-27 15:24:00,
2013-07-27 08:29:00,60.3,52.8,30.17,East,90,0.7,4.5,76,0.00,,,0.00,NetBSD+Arduino,2013-07-27 15:29:00,
2013-07-27 08:34:00,60.4,52.9,30.17,South,180,1.2,4.5,76,0.00,,,0.00,NetBSD+Arduino,2013-07-27 15:34:00,
2013-07-27 08:39:00,60.5,53.2,30.17,South,180,0.0,4.5,76,0.00,,,0.00,NetBSD+Arduino,2013-07-27 15:39:00,
2013-07-27 08:44:00,60.9,52.9,30.17,SW,225,3.3,6.0,75,0.00,,,0.00,NetBSD+Arduino,2013-07-27 15:44:00,
2013-07-27 08:49:00,61.2,52.9,30.17,SW,225,3.3,4.5,74,0.00,,,0.00,NetBSD+Arduino,2013-07-27 15:49:00,
2013-07-27 08:54:00,62.3,53.2,30.17,NW,315,1.5,4.5,72,0.00,,,0.00,NetBSD+Arduino,2013-07-27 15:54:00,
2013-07-27 08:59:00,63.4,53.7,30.17,SW,225,1.0,4.5,70,0.00,,,0.00,NetBSD+Arduino,2013-07-27 15:59:00,
2013-07-27 09:04:00,64.5,53.3,30.17,SW,225,1.5,6.0,67,0.00,,,0.00,NetBSD+Arduino,2013-07-27 16:04:00,
2013-07-27 09:09:00,65.2,53.5,30.17,West,270,2.2,6.0,65,0.00,,,0.00,NetBSD+Arduino,2013-07-27 16:09:00,
2013-07-27 09:14:00,65.9,54.6,30.17,SW,225,0.7,4.5,66,0.00,,,0.00,NetBSD+Arduino,2013-07-27 16:14:00,
2013-07-27 09:19:00,66.7,53.5,30.17,South,180,2.7,4.5,62,0.00,,,0.00,NetBSD+Arduino,2013-07-27 16:19:00,
2013-07-27 09:24:00,66.8,53.4,30.17,West,270,1.5,6.0,62,0.00,,,0.00,NetBSD+Arduino,2013-07-27 16:24:00,
2013-07-27 09:29:00,68.4,54.3,30.17,SW,225,1.7,4.5,60,0.00,,,0.00,NetBSD+Arduino,2013-07-27 16:29:00,
2013-07-27 09:34:00,67.6,53.3,30.17,West,270,1.5,7.5,60,0.00,,,0.00,NetBSD+Arduino,2013-07-27 16:34:00,
2013-07-27 09:39:00,67.1,53.5,30.16,SW,225,3.0,4.5,61,0.00,,,0.00,NetBSD+Arduino,2013-07-27 16:39:00,
2013-07-27 09:44:00,66.8,54.7,30.16,SW,225,2.5,6.0,64,0.00,,,0.00,NetBSD+Arduino,2013-07-27 16:44:00,
2013-07-27 09:49:00,66.2,52.8,30.16,SW,225,1.5,6.0,62,0.00,,,0.00,NetBSD+Arduino,2013-07-27 16:49:00,
2013-07-27 09:54:00,67.5,54.1,30.16,ESE,103,0.2,4.5,62,0.00,,,0.00,NetBSD+Arduino,2013-07-27 16:54:00,
2013-07-27 10:00:00,68.1,54.9,30.16,NW,315,1.5,6.0,62,0.00,,,0.00,NetBSD+Arduino,2013-07-27 17:00:00,
2013-07-27 10:05:00,68.2,53.5,30.16,West,270,1.5,9.0,59,0.00,,,0.00,NetBSD+Arduino,2013-07-27 17:05:00,
2013-07-27 10:10:00,67.3,53.3,30.16,SW,225,2.0,9.0,60,0.00,,,0.00,NetBSD+Arduino,2013-07-27 17:10:00,
2013-07-27 10:15:00,68.1,54.0,30.16,SW,225,4.0,6.0,60,0.00,,,0.00,NetBSD+Arduino,2013-07-27 17:15:00,
2013-07-27 10:20:00,68.0,53.2,30.16,SW,225,2.5,6.0,59,0.00,,,0.00,NetBSD+Arduino,2013-07-27 17:20:00,
2013-07-27 10:25:00,67.9,53.4,30.16,SW,225,1.7,9.0,59,0.00,,,0.00,NetBSD+Arduino,2013-07-27 17:25:00,
2013-07-27 10:26:00,68.2,53.1,30.16,SW,225,2.7,9.0,58,0.00,,,0.00,NetBSD+Arduino,2013-07-27 17:26:00,
2013-07-27 10:31:00,68.8,54.5,30.16,SW,225,3.2,4.5,60,0.00,,,0.00,NetBSD+Arduino,2013-07-27 17:31:00,
2013-07-27 10:36:00,69.2,53.3,30.16,South,180,2.1,4.5,56,0.00,,,0.00,NetBSD+Arduino,2013-07-27 17:36:00,
2013-07-27 10:41:00,69.0,54.2,30.15,SW,225,0.0,7.5,59,0.00,,,0.00,NetBSD+Arduino,2013-07-27 17:41:00,
2013-07-27 10:46:00,68.5,53.3,30.16,ESE,102,0.9,6.0,58,0.00,,,0.00,NetBSD+Arduino,2013-07-27 17:46:00,
2013-07-27 10:51:00,68.0,53.5,30.15,NW,315,2.4,6.0,59,0.00,,,0.00,NetBSD+Arduino,2013-07-27 17:51:00,
2013-07-27 10:56:00,69.7,53.3,30.15,SW,225,3.6,6.0,56,0.00,,,0.00,NetBSD+Arduino,2013-07-27 17:56:00,
2013-07-27 11:01:00,69.9,53.7,30.15,NW,315,0.0,7.5,56,0.00,,,0.00,NetBSD+Arduino,2013-07-27 18:01:00,
2013-07-27 11:06:00,70.0,53.8,30.15,SW,225,2.4,6.0,56,0.00,,,0.00,NetBSD+Arduino,2013-07-27 18:06:00,
2013-07-27 11:11:00,69.7,53.3,30.15,NW,315,1.8,7.5,56,0.00,,,0.00,NetBSD+Arduino,2013-07-27 18:11:00,
2013-07-27 11:16:00,69.9,54.5,30.15,SW,225,0.9,7.5,57,0.00,,,0.00,NetBSD+Arduino,2013-07-27 18:16:00,
2013-07-27 11:21:00,70.1,54.2,30.15,SW,225,1.2,6.0,57,0.00,,,0.00,NetBSD+Arduino,2013-07-27 18:21:00,
2013-07-27 11:26:00,69.7,53.5,30.15,SW,225,2.5,6.0,56,0.00,,,0.00,NetBSD+Arduino,2013-07-27 18:26:00,
2013-07-27 11:31:00,69.6,53.4,30.15,SW,225,0.6,6.0,56,0.00,,,0.00,NetBSD+Arduino,2013-07-27 18:31:00,
2013-07-27 11:36:00,69.3,52.5,30.15,SW,225,2.1,7.5,54,0.00,,,0.00,NetBSD+Arduino,2013-07-27 18:36:00,
2013-07-27 11:41:00,69.6,52.7,30.15,NE,45,0.6,6.0,55,0.00,,,0.00,NetBSD+Arduino,2013-07-27 18:41:00,
2013-07-27 11:46:00,71.6,55.1,30.15,West,270,2.4,6.0,56,0.00,,,0.00,NetBSD+Arduino,2013-07-27 18:46:00,
2013-07-27 11:51:00,71.8,53.3,30.15,SW,225,3.3,9.0,52,0.00,,,0.00,NetBSD+Arduino,2013-07-27 18:51:00,
2013-07-27 11:56:00,71.9,54.0,30.15,West,270,1.5,4.5,53,0.00,,,0.00,NetBSD+Arduino,2013-07-27 18:56:00,
2013-07-27 12:01:00,71.1,53.2,30.14,South,180,9.0,10.4,53,0.00,,,0.00,NetBSD+Arduino,2013-07-27 19:01:00,
2013-07-27 12:06:00,72.4,53.9,30.14,SW,225,3.0,10.4,52,0.00,,,0.00,NetBSD+Arduino,2013-07-27 19:06:00,
2013-07-27 12:11:00,72.7,54.2,30.13,SW,225,3.6,7.5,52,0.00,,,0.00,NetBSD+Arduino,2013-07-27 19:11:00,
2013-07-27 12:16:00,74.3,55.2,30.13,SW,225,0.6,6.0,51,0.00,,,0.00,NetBSD+Arduino,2013-07-27 19:16:00,
2013-07-27 12:21:00,72.6,53.5,30.13,SW,225,2.4,6.0,51,0.00,,,0.00,NetBSD+Arduino,2013-07-27 19:21:00,
2013-07-27 12:26:00,73.7,54.8,30.12,West,270,0.0,6.0,51,0.00,,,0.00,NetBSD+Arduino,2013-07-27 19:26:00,
2013-07-27 12:31:00,74.2,54.5,30.13,SW,225,3.3,7.5,50,0.00,,,0.00,NetBSD+Arduino,2013-07-27 19:31:00,
2013-07-27 12:36:00,74.4,53.7,30.12,SW,225,3.6,6.0,48,0.00,,,0.00,NetBSD+Arduino,2013-07-27 19:36:00,
2013-07-27 12:41:00,73.7,54.0,30.12,SW,225,6.0,7.5,50,0.00,,,0.00,NetBSD+Arduino,2013-07-27 19:41:00,
2013-07-27 12:46:00,75.1,53.7,30.12,SW,225,2.2,7.5,47,0.00,,,0.00,NetBSD+Arduino,2013-07-27 19:46:00,
2013-07-27 12:51:00,75.2,54.9,30.12,SW,225,2.7,6.0,49,0.00,,,0.00,NetBSD+Arduino,2013-07-27 19:51:00,
2013-07-27 12:56:00,74.9,54.7,30.11,East,90,0.9,7.5,49,0.00,,,0.00,NetBSD+Arduino,2013-07-27 19:56:00,
2013-07-27 13:01:00,75.7,54.6,30.11,South,180,3.0,4.5,47,0.00,,,0.00,NetBSD+Arduino,2013-07-27 20:01:00,
2013-07-27 13:06:00,75.4,54.0,30.11,West,270,0.9,6.0,47,0.00,,,0.00,NetBSD+Arduino,2013-07-27 20:06:00,
2013-07-27 13:11:00,74.9,53.5,30.11,SW,225,4.5,10.4,47,0.00,,,0.00,NetBSD+Arduino,2013-07-27 20:11:00,
2013-07-27 13:16:00,75.1,53.4,30.11,SW,225,6.0,10.4,46,0.00,,,0.00,NetBSD+Arduino,2013-07-27 20:16:00,
2013-07-27 13:21:00,75.2,53.8,30.10,South,180,4.5,7.5,47,0.00,,,0.00,NetBSD+Arduino,2013-07-27 20:21:00,
2013-07-27 13:26:00,75.2,55.3,30.10,SW,225,7.2,9.0,49,0.00,,,0.00,NetBSD+Arduino,2013-07-27 20:26:00,
2013-07-27 13:31:00,76.1,53.4,30.10,SW,225,3.9,10.4,45,0.00,,,0.00,NetBSD+Arduino,2013-07-27 20:31:00,
2013-07-27 13:37:00,74.7,53.0,30.10,SW,225,3.6,10.4,46,0.00,,,0.00,NetBSD+Arduino,2013-07-27 20:37:00,
2013-07-27 13:42:00,75.7,53.6,30.10,South,180,4.5,7.5,46,0.00,,,0.00,NetBSD+Arduino,2013-07-27 20:42:00,
2013-07-27 13:47:00,76.6,53.9,30.10,South,180,3.4,7.5,45,0.00,,,0.00,NetBSD+Arduino,2013-07-27 20:47:00,
2013-07-27 13:52:00,75.9,53.2,30.10,West,270,1.5,6.0,45,0.00,,,0.00,NetBSD+Arduino,2013-07-27 20:52:00,
2013-07-27 13:57:00,76.8,54.4,30.10,SW,225,2.7,7.5,45,0.00,,,0.00,NetBSD+Arduino,2013-07-27 20:57:00,
2013-07-27 14:02:00,75.9,52.6,30.10,South,180,2.2,9.0,44,0.00,,,0.00,NetBSD+Arduino,2013-07-27 21:02:00,
2013-07-27 14:07:00,76.7,53.7,30.09,SW,225,4.2,7.5,44,0.00,,,0.00,NetBSD+Arduino,2013-07-27 21:07:00,
2013-07-27 14:12:00,76.8,52.8,30.09,West,270,1.1,6.0,43,0.00,,,0.00,NetBSD+Arduino,2013-07-27 21:12:00,
2013-07-27 14:17:00,76.3,53.3,30.09,SW,225,2.7,6.0,44,0.00,,,0.00,NetBSD+Arduino,2013-07-27 21:17:00,
2013-07-27 14:22:00,77.3,53.0,30.09,SW,225,2.1,6.0,42,0.00,,,0.00,NetBSD+Arduino,2013-07-27 21:22:00,
2013-07-27 14:27:00,77.4,52.7,30.09,SW,225,1.2,7.5,42,0.00,,,0.00,NetBSD+Arduino,2013-07-27 21:27:00,
2013-07-27 14:32:00,77.3,52.3,30.09,SW,225,3.6,7.5,41,0.00,,,0.00,NetBSD+Arduino,2013-07-27 21:32:00,
2013-07-27 14:38:00,76.9,52.2,30.09,South,180,2.1,7.5,42,0.00,,,0.00,NetBSD+Arduino,2013-07-27 21:38:00,
2013-07-27 14:43:00,77.2,52.5,30.08,East,90,1.8,9.0,42,0.00,,,0.00,NetBSD+Arduino,2013-07-27 21:43:00,
2013-07-27 14:48:00,78.5,54.4,30.08,NE,45,1.5,4.5,43,0.00,,,0.00,NetBSD+Arduino,2013-07-27 21:48:00,
2013-07-27 14:53:00,78.5,53.7,30.08,West,270,3.7,6.0,42,0.00,,,0.00,NetBSD+Arduino,2013-07-27 21:53:00,
2013-07-27 14:58:00,79.0,52.8,30.07,West,270,4.5,6.0,40,0.00,,,0.00,NetBSD+Arduino,2013-07-27 21:58:00,
2013-07-27 15:03:00,78.3,54.3,30.07,West,270,0.0,4.5,43,0.00,,,0.00,NetBSD+Arduino,2013-07-27 22:03:00,
2013-07-27 15:09:00,79.1,53.7,30.07,ESE,103,0.9,3.0,41,0.00,,,0.00,NetBSD+Arduino,2013-07-27 22:09:00,
2013-07-27 15:14:00,79.0,52.8,30.07,SW,225,2.2,3.0,40,0.00,,,0.00,NetBSD+Arduino,2013-07-27 22:14:00,
2013-07-27 15:20:00,78.6,52.4,30.07,SW,225,2.1,4.5,40,0.00,,,0.00,NetBSD+Arduino,2013-07-27 22:20:00,
2013-07-27 15:25:00,78.5,52.7,30.07,East,90,1.9,4.5,40,0.00,,,0.00,NetBSD+Arduino,2013-07-27 22:25:00,
2013-07-27 15:30:00,78.4,52.3,30.07,West,270,1.5,4.5,40,0.00,,,0.00,NetBSD+Arduino,2013-07-27 22:30:00,
2013-07-27 15:35:00,77.6,52.6,30.06,South,180,1.1,4.5,41,0.00,,,0.00,NetBSD+Arduino,2013-07-27 22:35:00,
2013-07-27 15:40:00,77.3,52.0,30.06,West,270,2.6,4.5,41,0.00,,,0.00,NetBSD+Arduino,2013-07-27 22:40:00,
2013-07-27 15:45:00,77.3,51.6,30.06,West,270,2.4,4.5,40,0.00,,,0.00,NetBSD+Arduino,2013-07-27 22:45:00,
2013-07-27 15:50:00,76.9,50.5,30.06,NW,315,3.0,4.5,39,0.00,,,0.00,NetBSD+Arduino,2013-07-27 22:50:00,
2013-07-27 15:55:00,76.3,50.3,30.06,West,270,3.0,6.0,40,0.00,,,0.00,NetBSD+Arduino,2013-07-27 22:55:00,
2013-07-27 16:00:00,75.7,50.4,30.05,NW,315,2.6,6.0,41,0.00,,,0.00,NetBSD+Arduino,2013-07-27 23:00:00,
2013-07-27 16:05:00,75.4,50.9,30.05,SW,225,1.5,7.5,42,0.00,,,0.00,NetBSD+Arduino,2013-07-27 23:05:00,
2013-07-27 16:11:00,75.1,50.5,30.05,NW,315,0.7,6.0,42,0.00,,,0.00,NetBSD+Arduino,2013-07-27 23:11:00,
2013-07-27 16:16:00,75.4,50.5,30.05,ESE,104,2.4,4.5,41,0.00,,,0.00,NetBSD+Arduino,2013-07-27 23:16:00,
2013-07-27 16:21:00,74.5,51.3,30.05,NE,45,3.6,7.5,44,0.00,,,0.00,NetBSD+Arduino,2013-07-27 23:21:00,
2013-07-27 16:26:00,74.7,51.8,30.05,North,0,0.0,7.5,44,0.00,,,0.00,NetBSD+Arduino,2013-07-27 23:26:00,
2013-07-27 16:31:00,74.9,51.4,30.04,ESE,103,0.6,4.5,43,0.00,,,0.00,NetBSD+Arduino,2013-07-27 23:31:00,
2013-07-27 16:36:00,74.6,50.7,30.04,West,270,1.8,4.5,43,0.00,,,0.00,NetBSD+Arduino,2013-07-27 23:36:00,
2013-07-27 16:41:00,74.5,50.3,30.04,West,270,1.1,3.0,42,0.00,,,0.00,NetBSD+Arduino,2013-07-27 23:41:00,
2013-07-27 16:46:00,75.2,51.0,30.03,NW,315,1.5,4.5,42,0.00,,,0.00,NetBSD+Arduino,2013-07-27 23:46:00,
2013-07-27 16:51:00,74.9,50.3,30.04,SW,225,0.6,6.0,42,0.00,,,0.00,NetBSD+Arduino,2013-07-27 23:51:00,
2013-07-27 16:56:00,74.5,50.7,30.03,NW,315,3.4,4.5,43,0.00,,,0.00,NetBSD+Arduino,2013-07-27 23:56:00,
2013-07-27 17:01:00,74.5,50.7,30.03,NW,315,1.5,4.5,43,0.00,,,0.00,NetBSD+Arduino,2013-07-28 00:01:00,
2013-07-27 17:06:00,74.2,51.0,30.03,West,270,1.2,3.0,44,0.00,,,0.00,NetBSD+Arduino,2013-07-28 00:06:00,
2013-07-27 17:11:00,74.4,51.2,30.03,NE,45,0.0,4.5,44,0.00,,,0.00,NetBSD+Arduino,2013-07-28 00:11:00,
2013-07-27 17:16:00,74.3,51.4,30.02,NW,315,1.8,4.5,44,0.00,,,0.00,NetBSD+Arduino,2013-07-28 00:16:00,
2013-07-27 17:21:00,74.4,51.9,30.02,NW,315,3.0,6.0,45,0.00,,,0.00,NetBSD+Arduino,2013-07-28 00:21:00,
2013-07-27 17:26:00,74.2,51.7,30.02,NE,45,1.2,3.0,45,0.00,,,0.00,NetBSD+Arduino,2013-07-28 00:26:00,
2013-07-27 17:32:00,74.2,51.9,30.02,NW,315,0.7,3.0,45,0.00,,,0.00,NetBSD+Arduino,2013-07-28 00:32:00,
2013-07-27 17:38:00,74.0,52.1,30.02,SW,225,0.0,3.0,46,0.00,,,0.00,NetBSD+Arduino,2013-07-28 00:38:00,
2013-07-27 17:43:00,74.0,51.8,30.02,West,270,1.5,4.5,45,0.00,,,0.00,NetBSD+Arduino,2013-07-28 00:43:00,
2013-07-27 17:48:00,73.9,52.0,30.02,NW,315,2.2,7.5,46,0.00,,,0.00,NetBSD+Arduino,2013-07-28 00:48:00,
2013-07-27 17:53:00,73.9,51.9,30.02,SW,225,0.7,4.5,46,0.00,,,0.00,NetBSD+Arduino,2013-07-28 00:53:00,
2013-07-27 17:58:00,73.6,51.7,30.02,West,270,0.0,4.5,46,0.00,,,0.00,NetBSD+Arduino,2013-07-28 00:58:00,
2013-07-27 18:03:00,73.3,52.0,30.02,ESE,103,1.5,4.5,47,0.00,,,0.00,NetBSD+Arduino,2013-07-28 01:03:00,
2013-07-27 18:08:00,73.4,51.8,30.02,West,270,0.0,3.0,46,0.00,,,0.00,NetBSD+Arduino,2013-07-28 01:08:00,
2013-07-27 18:13:00,73.2,51.8,30.01,NW,315,0.3,4.5,47,0.00,,,0.00,NetBSD+Arduino,2013-07-28 01:13:00,
2013-07-27 18:18:00,73.2,52.1,30.01,West,270,1.8,3.0,47,0.00,,,0.00,NetBSD+Arduino,2013-07-28 01:18:00,
2013-07-27 18:23:00,72.9,51.9,30.01,South,180,1.2,3.0,47,0.00,,,0.00,NetBSD+Arduino,2013-07-28 01:23:00,
2013-07-27 18:28:00,72.8,51.8,30.01,NW,315,3.3,4.5,47,0.00,,,0.00,NetBSD+Arduino,2013-07-28 01:28:00,
2013-07-27 18:33:00,72.8,52.1,30.00,West,270,0.0,3.0,48,0.00,,,0.00,NetBSD+Arduino,2013-07-28 01:33:00,
2013-07-27 18:38:00,72.6,51.9,30.01,ENE,77,1.1,3.0,48,0.00,,,0.00,NetBSD+Arduino,2013-07-28 01:38:00,
2013-07-27 18:43:00,72.3,51.6,30.00,ESE,103,2.1,3.0,48,0.00,,,0.00,NetBSD+Arduino,2013-07-28 01:43:00,
2013-07-27 18:48:00,72.3,50.4,30.00,West,270,0.9,4.5,46,0.00,,,0.00,NetBSD+Arduino,2013-07-28 01:48:00,
2013-07-27 18:53:00,72.4,50.6,30.00,NE,45,1.5,4.5,46,0.00,,,0.00,NetBSD+Arduino,2013-07-28 01:53:00,
2013-07-27 18:58:00,72.4,49.9,30.00,NE,45,0.7,4.5,45,0.00,,,0.00,NetBSD+Arduino,2013-07-28 01:58:00,
2013-07-27 19:03:00,72.0,50.7,30.00,ESE,104,0.0,1.5,47,0.00,,,0.00,NetBSD+Arduino,2013-07-28 02:03:00,
2013-07-27 19:08:00,71.8,50.6,30.00,SW,225,0.0,4.5,47,0.00,,,0.00,NetBSD+Arduino,2013-07-28 02:08:00,
2013-07-27 19:13:00,71.7,50.2,30.00,NW,315,0.0,1.5,46,0.00,,,0.00,NetBSD+Arduino,2013-07-28 02:13:00,
2013-07-27 19:18:00,71.6,50.3,30.00,NE,45,0.9,1.5,47,0.00,,,0.00,NetBSD+Arduino,2013-07-28 02:18:00,
2013-07-27 19:23:00,71.3,50.7,30.00,NE,45,2.1,4.5,48,0.00,,,0.00,NetBSD+Arduino,2013-07-28 02:23:00,
2013-07-27 19:28:00,71.3,49.2,30.00,West,270,0.0,6.0,45,0.00,,,0.00,NetBSD+Arduino,2013-07-28 02:28:00,
2013-07-27 19:33:00,71.3,49.5,30.00,NE,45,2.2,3.0,46,0.00,,,0.00,NetBSD+Arduino,2013-07-28 02:33:00,
2013-07-27 19:38:00,71.1,50.4,30.00,West,270,0.0,3.0,48,0.00,,,0.00,NetBSD+Arduino,2013-07-28 02:38:00,
2013-07-27 19:43:00,70.8,50.4,30.00,West,270,0.0,1.5,48,0.00,,,0.00,NetBSD+Arduino,2013-07-28 02:43:00,
2013-07-27 19:48:00,70.7,51.2,30.00,ESE,103,0.0,1.5,50,0.00,,,0.00,NetBSD+Arduino,2013-07-28 02:48:00,
2013-07-27 19:53:00,70.4,50.6,30.00,NW,315,0.0,0.0,49,0.00,,,0.00,NetBSD+Arduino,2013-07-28 02:53:00,
2013-07-27 19:58:00,70.3,50.8,29.99,West,270,0.0,0.0,50,0.00,,,0.00,NetBSD+Arduino,2013-07-28 02:58:00,
2013-07-27 20:03:00,70.1,51.1,29.99,ESE,103,0.0,0.0,51,0.00,,,0.00,NetBSD+Arduino,2013-07-28 03:03:00,
2013-07-27 20:08:00,70.0,51.0,29.99,West,270,0.0,0.0,51,0.00,,,0.00,NetBSD+Arduino,2013-07-28 03:08:00,
2013-07-27 20:13:00,69.8,51.4,29.99,West,270,0.0,0.0,52,0.00,,,0.00,NetBSD+Arduino,2013-07-28 03:13:00,
2013-07-27 20:18:00,69.5,51.6,29.99,NW,315,0.0,0.0,53,0.00,,,0.00,NetBSD+Arduino,2013-07-28 03:18:00,
2013-07-27 20:23:00,69.2,51.6,29.99,SW,225,0.0,0.0,53,0.00,,,0.00,NetBSD+Arduino,2013-07-28 03:23:00,
2013-07-27 20:28:00,69.0,51.6,29.99,West,270,0.0,0.0,53,0.00,,,0.00,NetBSD+Arduino,2013-07-28 03:28:00,
2013-07-27 20:34:00,68.7,51.3,29.99,West,270,0.0,0.0,53,0.00,,,0.00,NetBSD+Arduino,2013-07-28 03:34:00,
2013-07-27 20:39:00,68.3,51.0,29.99,SW,225,0.0,0.0,53,0.00,,,0.00,NetBSD+Arduino,2013-07-28 03:39:00,
2013-07-27 20:44:00,68.0,51.2,29.99,SW,225,0.0,0.0,54,0.00,,,0.00,NetBSD+Arduino,2013-07-28 03:44:00,
2013-07-27 20:49:00,68.0,51.1,29.99,NW,315,0.0,0.0,54,0.00,,,0.00,NetBSD+Arduino,2013-07-28 03:49:00,
2013-07-27 20:54:00,67.8,51.5,29.99,SW,225,0.0,0.0,55,0.00,,,0.00,NetBSD+Arduino,2013-07-28 03:54:00,
2013-07-27 20:59:00,67.5,51.2,29.99,SW,225,0.0,0.0,55,0.00,,,0.00,NetBSD+Arduino,2013-07-28 03:59:00,
2013-07-27 21:01:00,67.5,51.1,29.99,SW,225,0.0,0.0,55,0.00,,,0.00,NetBSD+Arduino,2013-07-28 04:01:00,
2013-07-27 21:04:00,67.3,51.2,29.99,West,270,0.0,0.0,56,0.00,,,0.00,NetBSD+Arduino,2013-07-28 04:04:00,
2013-07-27 21:05:00,67.2,51.2,29.99,West,270,0.0,0.0,56,0.00,,,0.00,NetBSD+Arduino,2013-07-28 04:05:00,
2013-07-27 21:08:00,67.1,51.0,29.99,West,270,0.0,0.0,56,0.00,,,0.00,NetBSD+Arduino,2013-07-28 04:08:00,
2013-07-27 21:10:00,67.0,51.1,29.99,SW,225,0.0,0.0,56,0.00,,,0.00,NetBSD+Arduino,2013-07-28 04:10:00,
2013-07-27 21:15:00,66.8,50.7,29.99,West,270,0.0,0.0,56,0.00,,,0.00,NetBSD+Arduino,2013-07-28 04:15:00,
2013-07-27 21:20:00,66.7,50.6,29.99,SW,225,0.0,0.0,56,0.00,,,0.00,NetBSD+Arduino,2013-07-28 04:20:00,
2013-07-27 21:25:00,66.5,50.9,29.99,West,270,0.0,0.0,57,0.00,,,0.00,NetBSD+Arduino,2013-07-28 04:25:00,
2013-07-27 21:30:00,66.4,51.0,29.99,SW,225,0.0,0.0,57,0.00,,,0.00,NetBSD+Arduino,2013-07-28 04:30:00,
2013-07-27 21:35:00,66.1,51.0,29.99,West,270,0.0,0.0,58,0.00,,,0.00,NetBSD+Arduino,2013-07-28 04:35:00,
2013-07-27 21:40:00,65.9,51.0,29.99,NW,315,0.3,1.5,58,0.00,,,0.00,NetBSD+Arduino,2013-07-28 04:40:00,
2013-07-27 21:45:00,65.8,51.3,29.99,NW,315,1.2,3.0,59,0.00,,,0.00,NetBSD+Arduino,2013-07-28 04:45:00,
2013-07-27 21:50:00,65.8,51.1,29.99,West,270,0.9,3.0,59,0.00,,,0.00,NetBSD+Arduino,2013-07-28 04:50:00,
2013-07-27 21:55:00,65.7,51.4,29.99,SW,225,0.9,3.0,60,0.00,,,0.00,NetBSD+Arduino,2013-07-28 04:55:00,
2013-07-27 22:00:00,65.4,51.4,29.99,West,270,1.2,3.0,60,0.00,,,0.00,NetBSD+Arduino,2013-07-28 05:00:00,
2013-07-27 22:05:00,65.2,51.6,29.99,West,270,1.5,3.0,61,0.00,,,0.00,NetBSD+Arduino,2013-07-28 05:05:00,
2013-07-27 22:10:00,64.9,51.5,29.99,ESE,102,1.2,4.5,61,0.00,,,0.00,NetBSD+Arduino,2013-07-28 05:10:00,
2013-07-27 22:15:00,64.7,51.5,29.99,SW,225,1.5,3.0,62,0.00,,,0.00,NetBSD+Arduino,2013-07-28 05:15:00,
2013-07-27 22:20:00,64.4,51.6,29.99,SW,225,1.2,3.0,63,0.00,,,0.00,NetBSD+Arduino,2013-07-28 05:20:00,
2013-07-27 22:25:00,64.2,51.5,29.99,West,270,1.2,4.5,63,0.00,,,0.00,NetBSD+Arduino,2013-07-28 05:25:00,
2013-07-27 22:30:00,64.1,51.9,29.99,SW,225,0.6,3.0,64,0.00,,,0.00,NetBSD+Arduino,2013-07-28 05:30:00,
2013-07-27 22:36:00,63.8,52.0,30.00,SW,225,0.0,1.5,65,0.00,,,0.00,NetBSD+Arduino,2013-07-28 05:36:00,
2013-07-27 22:41:00,63.5,52.2,30.00,West,270,0.3,4.5,66,0.00,,,0.00,NetBSD+Arduino,2013-07-28 05:41:00,
2013-07-27 22:47:00,63.4,51.8,30.00,NW,315,0.0,1.5,66,0.00,,,0.00,NetBSD+Arduino,2013-07-28 05:47:00,
2013-07-27 22:52:00,63.4,51.8,29.99,NW,315,0.0,0.0,66,0.00,,,0.00,NetBSD+Arduino,2013-07-28 05:52:00,
2013-07-27 22:57:00,63.1,51.7,30.00,SW,225,0.0,0.0,66,0.00,,,0.00,NetBSD+Arduino,2013-07-28 05:57:00,
2013-07-27 23:02:00,62.7,51.6,29.99,SW,225,0.0,0.0,66,0.00,,,0.00,NetBSD+Arduino,2013-07-28 06:02:00,
2013-07-27 23:07:00,62.4,51.7,30.00,West,270,0.0,0.0,67,0.00,,,0.00,NetBSD+Arduino,2013-07-28 06:07:00,
2013-07-27 23:12:00,62.2,51.4,30.00,SW,225,0.0,0.0,67,0.00,,,0.00,NetBSD+Arduino,2013-07-28 06:12:00,
2013-07-27 23:17:00,61.9,51.7,30.00,NW,315,0.0,0.0,69,0.00,,,0.00,NetBSD+Arduino,2013-07-28 06:17:00,
2013-07-27 23:23:00,61.9,51.3,30.00,NW,315,0.0,0.0,68,0.00,,,0.00,NetBSD+Arduino,2013-07-28 06:23:00,
2013-07-27 23:28:00,61.9,51.3,30.00,NW,315,0.0,0.0,68,0.00,,,0.00,NetBSD+Arduino,2013-07-28 06:28:00,
2013-07-27 23:33:00,61.7,51.3,30.00,ESE,102,0.0,0.0,68,0.00,,,0.00,NetBSD+Arduino,2013-07-28 06:33:00,
2013-07-27 23:38:00,61.5,51.3,29.99,SW,225,0.0,0.0,69,0.00,,,0.00,NetBSD+Arduino,2013-07-28 06:38:00,
2013-07-27 23:43:00,61.3,51.1,29.99,West,270,0.0,0.0,69,0.00,,,0.00,NetBSD+Arduino,2013-07-28 06:43:00,
2013-07-27 23:48:00,61.3,51.2,29.99,East,101,0.0,0.0,69,0.00,,,0.00,NetBSD+Arduino,2013-07-28 06:48:00,
2013-07-27 23:53:00,61.3,51.1,29.99,NE,45,0.0,0.0,69,0.00,,,0.00,NetBSD+Arduino,2013-07-28 06:53:00,
2013-07-27 23:58:00,61.3,50.9,29.99,NW,315,0.0,0.0,68,0.00,,,0.00,NetBSD+Arduino,2013-07-28 06:58:00,